CAPE
62 752 1975 1899 1786 1488 1074 998 1317 1664 1866 1954 1920 1658 1346 1084 902 528 125 0 0 0 0 0 0 0 0 0 0 0 0 0 0 0 0 124 486 1003 830 1107 1189 1226 1699
130 427 1852 1767 1677 1606 1275 958 958 1158 1320 1507 1561 1313 966 599 196 123 0 0 0 0 0 0 0 0 0 0 0 0 0 0 0 0 0 0 39 87 879 911 1059 1205 1310
187 322 1233 1597 1577 1587 1430 1173 909 844 924 1045 1062 951 658 438 166 33 0 0 0 0 0 0 0 0 0 0 0 0 0 0 0 0 0 0 13 19 57 817 1212 1261 1232
511 518 121 1489 1419 1480 1402 1305 1097 986 829 816 837 780 540 454 212 31 0 0 0 0 0 0 0 0 0 0 0 0 0 0 0 0 0 0 0 0 18 149 754 1414 1399
771 682 99 1501 1426 1456 1328 1233 1152 1114 964 916 875 697 474 256 97 46 22 9 0 0 0 4 1 0 0 0 0 0 0 0 0 0 0 0 0 0 106 410 755 1443 1611
750 572 802 1446 1445 1401 1327 1161 1022 915 853 782 653 460 230 112 85 71 63 33 3 0 0 9 19 25 45 72 170 350 495 320 194 66 0 0 0 36 207 576 982 1163 1892
690 635 713 1575 1531 1455 1389 1180 1021 820 556 423 316 226 188 166 156 149 115 60 38 13 29 38 79 139 136 178 225 308 363 469 592 525 395 161 0 69 321 696 1130 1427 1582
552 711 514 1612 1581 1444 1364 1216 985 705 589 429 331 292 283 245 203 181 180 145 181 235 177 189 249 404 542 598 739 804 701 685 504 483 644 568 178 97 362 986 1347 1966 1605
802 1189 1066 949 1141 1501 1439 1214 1024 788 648 516 404 380 402 393 363 316 330 350 431 585 721 754 521 555 657 937 959 829 799 769 635 678 538 591 248 80 368 1171 1313 1360 1284
910 932 958 953 526 336 376 1505 1264 1017 897 706 578 632 599 572 558 448 435 494 663 799 868 855 685 792 1067 894 761 702 644 575 198 330 648 710 429 264 380 903 1051 1157 1189
420 919 1079 846 881 433 83 348 1357 1206 1166 992 786 813 547 108 149 125 155 491 859 947 893 872 944 1107 1086 792 692 613 487 334 286 301 323 1052 691 585 403 612 1032 937 792
295 519 899 1263 1053 832 173 238 701 200 236 224 104 123 167 132 165 87 231 813 1002 1094 1006 1057 1247 1371 992 646 795 557 474 484 425 244 216 956 744 780 690 583 816 1093 732
1 1 370 1083 1421 1077 648 248 450 627 570 444 201 681 474 196 334 215 235 363 442 852 841 1192 1373 1158 918 777 526 444 370 288 238 192 340 676 687 785 836 831 779 1015 1013
0 0 0 855 1691 1772 1111 812 664 552 805 526 353 1180 918 857 1027 547 285 429 708 287 689 1311 1140 1275 1262 1041 780 602 620 559 328 457 762 717 733 839 786 794 863 909 1225
0 3 0 196 1466 1890 2095 1457 1455 1026 882 946 591 997 983 528 1222 738 736 405 613 442 680 1322 1292 1375 1432 1291 987 817 756 712 762 791 706 1003 840 931 1087 1165 1100 990 1044
0 2 9 0 580 1712 1987 2093 1972 2184 1334 1103 885 741 1411 802 1364 521 869 583 559 611 634 1036 1318 1348 1319 1164 1147 1124 1005 906 933 909 848 1062 1153 1025 937 1009 1065 1126 1024
0 1 71 135 202 1841 2025 1947 1849 1377 1409 1063 1094 1768 1026 1570 1457 1257 593 642 428 770 1097 827 1137 1443 1254 1128 1135 1219 1300 1135 1091 1154 1116 979 1021 1107 981 1099 1113 1058 1116
13 1 6 4 0 760 2003 1607 1234 958 1082 1090 1033 1126 1209 1372 1475 1552 592 646 453 765 694 532 1229 1098 1169 1161 1863 1762 1493 1131 1086 1193 1264 1162 1155 908 1073 1391 1150 1336 1295
0 0 14 39 0 625 897 795 1393 2173 1383 1001 1007 1170 1195 1215 1289 1191 765 599 1485 579 545 706 705 934 1101 1549 1369 1803 1547 1069 919 1007 1139 1158 1203 1150 901 1351 1256 1525 1576
0 56 312 249 768 321 229 755 764 975 1184 1100 1032 1102 1213 1336 1330 1404 964 1067 1137 543 561 526 855 1076 1803 1680 1419 1070 990 987 885 922 1015 1087 1093 1147 1191 987 981 640 1289
0 169 169 525 1764 292 8 356 883 1050 1277 1170 1028 1214 1243 1367 1319 1385 1099 1035 1013 823 877 1132 1073 1685 1861 1648 1403 846 750 831 996 903 930 1105 1071 1102 1089 1125 960 1558 738
1 112 575 599 670 491 124 1104 1021 1329 1278 1337 1176 1332 1398 1258 1443 1417 1392 1261 1131 685 1108 1455 1560 1413 1724 1694 1104 863 456 470 758 795 839 959 999 1116 1056 1013 975 1087 1100
0 20 106 306 426 573 487 817 1564 1515 1504 1583 1537 1312 1175 1478 1391 1486 1573 1483 1238 817 931 1306 2346 1421 1727 1136 1237 756 338 182 338 527 752 909 1121 1398 1327 1161 920 1011 973
0 0 0 1 17 19 653 1609 2361 1573 1380 1469 1592 1192 1614 1524 1619 1546 1397 1536 1372 793 1410 1957 1896 1344 1574 1251 645 595 617 425 122 558 710 944 1108 1181 1291 1219 1175 847 708
0 0 0 2 542 474 837 1845 1808 1747 1662 1789 1618 1815 1494 1587 1432 1386 1604 1370 1161 1059 2061 1604 1611 1615 1444 775 458 397 421 334 525 518 701 880 912 990 1062 1261 1173 948 561
0 0 39 880 1395 692 1008 1612 1976 1997 1982 1931 2115 1036 1215 1308 1473 1531 1436 1562 1768 1860 1934 1603 1412 1375 1042 523 348 313 514 396 299 666 831 789 738 709 608 609 1336 1705 1036
CIN
-222 -299 -314 -267 -242 -257 -297 -280 -228 -149 -114 -77 -53 -56 -57 -69 -79 -122 -220 -0 -0 -0 -0 -0 -0 -0 -0 -0 -0 -0 -0 -0 -0 -0 -0 -94 -58 -13 -18 -7 -7 -0 -7
-179 -365 -357 -319 -273 -244 -261 -282 -271 -215 -175 -123 -99 -99 -122 -149 -197 -224 -0 -0 -0 -0 -0 -0 -0 -0 -0 -0 -0 -0 -0 -0 -0 -0 -0 -0 -104 -103 -24 -13 -15 -4 -12
-183 -360 -437 -359 -297 -266 -237 -259 -292 -273 -244 -206 -188 -175 -196 -205 -238 -282 -0 -0 -0 -0 -0 -0 -0 -0 -0 -0 -0 -0 -0 -0 -0 -0 -0 -0 -36 -107 -107 -34 -3 -5 -8
-201 -343 -468 -398 -360 -310 -275 -272 -281 -287 -267 -266 -235 -218 -239 -236 -267 -370 -0 -0 -0 -0 -0 -0 -0 -0 -0 -0 -0 -0 -0 -0 -0 -0 -0 -0 -0 -0 -118 -89 -46 -1 -2
-222 -286 -399 -422 -394 -357 -343 -322 -298 -281 -266 -260 -240 -247 -269 -287 -334 -399 -420 -357 -0 -0 -0 -154 -33 -0 -0 -0 -0 -0 -0 -0 -0 -0 -0 -0 -0 -0 -90 -58 -29 -6 -0
-195 -225 -400 -434 -387 -384 -378 -357 -339 -328 -302 -294 -292 -306 -333 -356 -368 -405 -393 -396 -84 -0 -0 -376 -348 -292 -235 -164 -81 -23 -9 -33 -69 -17 -0 -0 -0 -148 -62 -37 -23 -16 -3
-131 -187 -268 -416 -388 -379 -360 -350 -342 -347 -368 -373 -371 -371 -381 -371 -380 -383 -373 -399 -408 -430 -379 -332 -283 -227 -209 -156 -97 -61 -42 -27 -4 -1 -2 -27 -0 -121 -44 -18 -16 -8 -6
-102 -164 -202 -415 -368 -355 -362 -364 -362 -379 -387 -393 -389 -376 -360 -352 -360 -353 -326 -348 -325 -293 -289 -270 -231 -156 -113 -81 -38 -19 -23 -13 -12 -8 -0 -0 -76 -117 -42 -10 -10 -5 -6
-65 -131 -184 -294 -407 -346 -336 -364 -381 -399 -397 -392 -397 -376 -325 -300 -309 -306 -282 -275 -238 -189 -155 -131 -154 -123 -92 -46 -31 -36 -43 -31 -15 -0 -3 -0 -89 -127 -54 -6 -9 -7 -6
-57 -80 -139 -207 -308 -380 -401 -346 -355 -378 -373 -378 -374 -346 -315 -276 -267 -277 -274 -244 -177 -141 -116 -97 -107 -76 -44 -61 -75 -75 -64 -81 -130 -42 -0 -0 -49 -68 -52 -13 -4 -5 -3
-39 -76 -119 -151 -195 -260 -268 -372 -347 -346 -334 -345 -353 -303 -337 -416 -369 -379 -364 -228 -145 -102 -89 -77 -63 -44 -43 -84 -104 -113 -138 -95 -59 -45 -14 -59 -41 -17 -39 -27 -8 -8 -12
-22 -43 -93 -186 -208 -225 -235 -269 -373 -416 -437 -454 -486 -477 -434 -408 -329 -350 -311 -177 -125 -95 -99 -78 -34 -18 -56 -49 -42 -129 -87 -41 -51 -48 -32 -43 -29 -9 -14 -26 -17 -11 -17
-12 -10 -67 -144 -270 -226 -218 -224 -253 -289 -332 -369 -457 -346 -365 -366 -298 -328 -275 -280 -246 -118 -58 -57 -66 -66 -45 -36 -54 -52 -50 -89 -76 -59 -34 -39 -18 -8 -8 -11 -20 -11 -14
-0 -0 -0 -113 -237 -271 -170 -199 -205 -222 -262 -312 -362 -288 -283 -274 -214 -260 -272 -238 -204 -279 -131 -6 -36 -37 -35 -26 -27 -18 -28 -18 -20 -4 -6 -39 -25 -13 -13 -16 -14 -17 -7
-0 -110 -0 -134 -182 -218 -259 -136 -171 -199 -201 -249 -284 -309 -315 -334 -208 -257 -210 -235 -187 -155 -130 -47 -41 -3 -20 -1 -1 -2 -0 -2 -0 -0 -0 -42 -31 -21 -12 -8 -6 -12 -9
-67 -127 -128 -0 -135 -192 -177 -191 -164 -191 -189 -228 -259 -284 -291 -320 -192 -309 -219 -253 -217 -184 -153 -77 -28 -43 -28 -0 -0 -0 -0 -0 -0 -0 -0 -10 -36 -24 -24 -15 -6 -0 -2
-14 -13 -181 -180 -155 -128 -172 -189 -179 -163 -228 -208 -227 -210 -304 -237 -192 -209 -286 -265 -277 -169 -112 -111 -44 -25 -19 -0 -0 -0 -0 -0 -0 -0 -0 -0 -17 -52 -37 -24 -5 -3 -0
-262 -53 -210 -38 -0 -139 -140 -162 -187 -169 -185 -224 -227 -270 -314 -285 -226 -193 -302 -272 -267 -180 -156 -134 -67 -25 -6 -0 -1 -1 -0 -0 -0 -0 -0 -0 -1 -0 -38 -24 -15 -6 -2
-0 -0 -280 -212 -0 -167 -197 -220 -210 -203 -263 -236 -271 -278 -307 -317 -291 -250 -285 -288 -123 -210 -191 -141 -101 -37 -6 -0 -0 -0 -0 -0 -0 -0 -0 -0 -0 -0 -0 -31 -23 -9 -3
-0 -259 -182 -175 -147 -244 -276 -246 -245 -223 -275 -307 -291 -297 -309 -302 -282 -233 -251 -223 -194 -251 -212 -173 -74 -15 -0 -0 -0 -0 -0 -0 -0 -0 -0 -0 -0 -0 -0 -0 -2 -4 -10
-0 -216 -214 -159 -118 -262 -265 -199 -175 -164 -204 -270 -325 -337 -307 -284 -275 -227 -240 -244 -232 -213 -175 -102 -47 -0 -0 -0 -0 -0 -0 -0 -0 -0 -0 -0 -0 -0 -0 -0 -0 -4 -7
-260 -218 -150 -151 -166 -222 -224 -185 -141 -144 -150 -222 -291 -301 -276 -302 -232 -218 -195 -188 -202 -240 -122 -35 -14 -0 -0 -0 -0 -0 -0 -1 -0 -0 -0 -0 -0 -0 -0 -0 -0 -8 -2
-0 -266 -96 -209 -178 -191 -256 -212 -248 -244 -281 -245 -252 -303 -324 -243 -225 -194 -161 -144 -172 -200 -142 -16 -0 -0 -0 -0 -0 -0 -0 -0 -1 -0 -0 -0 -0 -0 -0 -0 -0 -0 -6
-0 -0 -0 -20 -237 -67 -263 -156 -186 -184 -194 -224 -230 -317 -224 -199 -168 -162 -166 -125 -124 -160 -22 -0 -0 -0 -0 -0 -0 -0 -0 -0 -2 -0 -0 -0 -0 -0 -0 -0 -0 -4 -37
-0 -0 -0 -6 -229 -290 -258 -197 -211 -183 -169 -209 -212 -196 -210 -170 -155 -150 -102 -112 -106 -46 -0 -0 -0 -0 -0 -0 -0 -0 -0 -0 -0 -0 -0 -0 -0 -0 -0 -0 -0 -9 -27
-0 -0 -106 -245 -218 -331 -302 -282 -211 -174 -145 -143 -128 -301 -225 -180 -122 -91 -74 -26 -0 -0 -0 -0 -0 -0 -0 -0 -0 -0 -0 -0 -0 -0 -0 -0 -0 -0 -0 -0 -0 -0 -5
Wind_Speed
13 21 22 20 18 17 17 17 17 16 16 15 15 15 14 13 12 13 14 13 12 12 12 11 10 10 9 8 7 6 6 5 5 5 6 6 7 4 3 5 6 9 13
18 23 23 21 20 18 17 17 16 16 16 15 15 14 14 13 13 11 11 12 11 11 10 10 10 9 9 8 7 6 5 5 5 3 2 4 5 5 3 3 5 5 8
20 22 24 22 20 20 18 18 17 16 16 16 16 15 14 13 13 12 10 10 11 11 11 10 10 9 8 7 7 6 5 4 4 2 2 7 2 5 5 2 3 6 8
18 19 22 23 22 21 19 18 18 17 17 16 16 15 15 14 13 14 13 11 11 11 11 10 9 8 8 7 5 5 5 4 3 3 8 2 4 7 2 3 2 6 8
17 18 20 24 23 23 22 19 18 17 17 16 16 16 15 15 14 14 14 13 13 11 10 10 9 8 6 5 5 4 3 3 3 8 1 3 3 10 1 3 6 8 8
16 18 18 22 20 21 21 19 18 18 17 17 17 17 16 15 15 14 14 14 13 12 11 10 9 8 7 6 5 4 4 4 7 5 3 6 7 9 3 6 6 7 9
15 15 18 20 19 19 18 18 17 17 17 17 17 17 17 17 15 14 14 14 13 13 12 11 11 9 8 6 6 5 4 4 11 5 4 3 2 4 5 7 8 9 8
12 13 14 19 16 16 18 18 17 17 18 18 18 17 16 16 15 14 14 13 13 13 13 12 10 8 7 7 7 7 6 7 9 8 5 4 9 1 5 9 8 10 10
10 11 11 16 16 13 14 16 18 18 18 18 17 16 16 15 14 14 13 13 12 11 11 10 9 9 8 8 7 6 6 6 11 7 6 5 11 2 4 6 3 8 8
10 10 11 12 17 18 17 16 17 18 18 18 17 16 16 15 14 14 12 12 12 10 10 8 9 9 8 8 8 7 7 8 11 10 6 3 8 2 3 4 2 4 6
8 9 10 13 15 17 17 17 16 17 18 18 16 15 14 13 15 16 14 13 13 11 10 10 10 10 9 9 8 8 8 8 7 6 6 14 6 4 4 2 1 3 5
10 10 11 11 14 14 12 14 15 16 15 15 16 17 14 15 13 14 14 12 15 13 13 13 11 9 9 8 9 10 8 5 5 5 5 10 5 7 7 5 5 5 7
4 5 9 11 12 14 13 10 8 9 10 12 18 15 15 12 12 12 9 10 10 12 8 12 13 10 10 6 5 4 4 5 5 4 3 7 7 11 10 9 8 8 9
11 9 6 10 12 14 10 11 11 11 11 11 15 17 13 11 11 11 10 12 9 8 11 11 7 8 8 8 7 7 7 6 4 4 6 10 9 11 12 11 11 11 11
13 13 9 9 12 12 14 11 12 13 12 13 14 17 15 15 11 12 11 10 10 10 9 9 8 8 9 9 8 8 8 7 6 6 4 14 10 11 13 13 12 13 13
14 14 13 10 10 12 13 14 11 11 12 12 13 14 20 14 12 14 12 13 12 11 10 9 9 9 7 8 9 9 8 8 8 8 7 8 12 10 10 13 13 14 14
13 12 11 9 9 12 14 13 11 12 12 13 13 14 17 16 14 14 13 13 13 10 12 9 8 5 8 7 8 9 7 9 9 9 8 8 9 14 12 12 13 13 14
12 12 12 12 11 11 12 11 11 11 12 12 12 12 17 17 17 15 13 12 12 11 11 10 8 10 8 7 4 5 7 10 10 8 8 9 6 7 12 13 12 14 13
13 13 13 14 15 12 11 11 12 12 11 11 10 11 15 17 18 14 13 12 13 11 10 9 9 8 7 6 7 7 8 9 7 10 11 11 10 8 6 14 11 11 10
14 14 14 14 13 11 10 9 11 10 10 9 10 10 14 13 16 13 12 13 13 12 10 9 9 8 4 5 6 8 7 8 10 9 10 10 10 10 10 8 8 9 10
16 15 14 13 12 9 9 10 10 11 9 9 10 12 13 12 14 16 12 13 12 12 11 11 9 9 6 5 6 8 9 10 10 9 7 9 10 11 10 7 7 3 9
17 15 15 14 11 11 10 9 8 7 8 8 8 10 12 13 16 14 14 12 14 11 11 9 11 7 5 6 4 5 9 5 6 7 8 8 11 8 9 9 9 8 7
19 16 14 13 12 11 12 8 7 5 3 8 9 8 9 15 14 14 13 11 12 10 10 12 10 9 5 4 6 6 5 4 2 3 5 7 8 7 7 8 9 10 4
19 15 14 12 11 11 12 10 11 9 8 7 8 9 12 13 10 9 12 12 12 11 10 10 8 8 5 6 3 7 10 7 5 3 3 6 6 8 9 7 8 9 4
16 14 13 13 12 11 12 12 11 11 8 8 8 12 7 8 10 13 13 12 12 10 10 11 7 6 5 8 6 6 6 8 7 7 4 3 3 3 5 5 6 6 3
11 12 11 10 10 10 12 13 12 11 10 10 10 10 8 8 8 11 13 12 12 9 9 7 7 7 7 5 5 4 6 5 7 5 5 4 4 3 2 2 6 7 10
Wind_Direction
170 152 168 169 171 173 164 160 157 158 154 155 154 151 151 154 159 157 155 152 148 148 145 139 133 127 119 115 108 101 92 83 66 48 46 53 62 61 122 156 187 179 143
156 156 169 168 173 173 170 167 165 162 159 161 159 159 159 163 164 166 162 158 152 152 147 146 138 137 136 133 126 118 110 96 78 49 22 179 95 49 51 176 228 111 143
157 161 170 169 174 173 175 173 170 168 167 168 166 166 167 170 170 168 166 163 160 159 158 152 147 146 147 144 138 139 133 121 109 95 261 244 141 57 34 10 211 138 162
154 165 173 172 175 175 176 176 176 173 177 173 172 173 173 175 176 171 169 171 172 171 164 155 153 154 154 149 148 157 157 149 148 224 225 209 227 107 19 354 313 182 184
158 169 176 175 178 176 177 178 177 177 182 178 179 179 181 179 178 174 172 175 178 175 167 164 161 160 158 161 165 174 188 186 204 236 162 237 251 119 33 321 222 195 194
162 174 164 178 182 179 176 176 180 181 183 183 185 183 183 184 183 179 179 180 177 176 175 175 174 172 179 185 198 207 216 241 253 215 190 136 254 74 354 293 284 272 186
166 177 166 178 189 182 174 177 182 185 185 188 189 188 187 187 185 184 184 184 180 179 181 183 184 185 189 200 214 222 224 242 268 195 212 221 188 72 301 295 273 228 206
166 178 173 180 188 183 179 177 185 190 190 190 193 190 192 190 184 185 190 187 188 187 187 189 190 196 205 220 236 230 242 257 238 265 234 236 98 84 297 305 279 206 201
170 178 183 181 188 186 185 182 188 192 195 196 194 192 193 195 190 189 192 192 198 195 195 195 198 205 213 231 237 237 232 249 275 257 235 229 122 209 296 309 238 183 194
175 187 187 191 189 198 192 193 194 195 197 199 198 193 191 196 195 196 196 199 204 204 204 206 209 214 222 223 223 228 244 244 247 268 231 204 104 263 291 341 216 193 196
192 195 199 191 197 204 206 193 196 202 202 200 200 200 190 203 198 198 203 183 204 206 209 213 217 217 220 223 219 225 234 243 241 228 255 108 132 238 255 260 232 221 207
209 206 206 209 210 207 214 208 200 209 211 211 206 202 210 209 206 207 196 198 194 203 205 208 217 223 224 234 181 201 234 268 247 253 249 118 166 238 239 237 234 232 226
250 276 213 204 216 213 210 207 208 209 210 210 213 205 203 206 206 203 201 194 198 200 210 208 194 214 220 247 232 250 252 238 242 228 146 138 207 239 240 236 230 235 228
276 291 260 209 209 218 222 208 213 216 210 213 208 207 206 205 202 206 205 197 199 179 203 210 215 215 215 229 244 252 234 256 229 236 158 168 213 237 240 237 234 232 233
273 275 258 212 212 211 217 225 217 221 217 216 214 204 208 205 202 201 205 204 189 208 186 216 197 226 214 225 240 239 248 246 254 261 263 163 205 235 239 235 235 233 233
262 263 269 237 222 206 221 225 228 225 229 220 221 215 206 211 200 202 203 205 204 193 207 198 225 199 217 228 219 241 249 257 238 248 245 179 185 220 235 241 236 236 228
263 259 264 256 222 218 222 230 231 235 222 228 222 218 207 210 210 210 205 204 207 204 199 210 231 216 216 223 243 244 243 258 257 244 242 249 183 193 219 227 234 226 226
260 266 262 263 254 228 233 236 235 236 234 224 221 216 211 208 221 201 212 207 207 201 200 207 195 215 221 223 259 271 249 250 246 257 253 257 243 248 189 203 221 223 225
266 265 261 259 261 261 248 246 239 236 229 231 218 212 204 208 211 219 216 207 206 206 200 195 212 225 215 222 235 243 245 253 258 252 236 234 240 261 249 168 193 208 202
257 256 252 258 262 250 254 240 242 227 221 223 218 213 206 202 206 203 213 213 198 208 195 204 208 203 215 233 252 253 280 279 267 249 245 248 232 232 237 243 183 189 185
259 253 251 252 244 232 232 227 223 218 207 210 214 206 203 194 195 198 214 202 201 205 200 184 196 204 208 223 245 253 255 233 241 253 239 239 236 224 219 197 211 247 174
255 254 250 250 244 225 224 227 237 217 209 200 194 191 191 177 198 200 211 191 196 195 191 180 194 191 207 201 257 289 270 210 220 225 237 230 231 220 220 205 215 200 224
254 249 247 242 232 227 231 213 204 195 199 186 178 168 188 192 196 203 199 195 183 194 181 188 190 194 211 185 246 260 273 262 169 199 235 230 234 216 215 202 182 193 211
258 251 247 245 240 234 215 208 203 192 187 190 186 166 183 191 176 178 187 190 178 189 178 182 185 216 202 216 186 248 270 298 283 220 223 226 221 212 197 188 184 179 184
254 246 245 247 244 234 203 214 192 210 168 165 169 152 138 157 172 177 182 173 181 192 169 184 180 193 207 251 212 175 229 237 235 261 262 197 194 169 185 178 178 161 216
249 238 233 240 237 217 204 200 198 183 166 158 135 142 153 153 163 168 170 172 171 179 170 169 183 200 232 212 250 235 216 219 226 228 247 188 171 142 156 184 167 179 191